TimeEST,TemperatureF,Dew PointF,Humidity,Sea Level PressureIn,VisibilityMPH,Wind Direction,Wind SpeedMPH,Gust SpeedMPH,PrecipitationIn,Events,Conditions,WindDirDegrees,DateUTC
12:53 AM,73.9,64.0,71,30.09,10.0,NE,12.7,-,N/A,,Mostly Cloudy,50,2011-11-07 05:53:00
1:53 AM,75.0,62.1,64,30.08,10.0,ENE,12.7,-,N/A,,Partly Cloudy,70,2011-11-07 06:53:00
2:53 AM,73.9,64.0,71,30.06,10.0,NE,8.1,-,N/A,,Scattered Clouds,40,2011-11-07 07:53:00
3:53 AM,75.0,63.0,66,30.07,10.0,ENE,10.4,-,N/A,,Mostly Cloudy,70,2011-11-07 08:53:00
4:53 AM,73.0,63.0,71,30.08,10.0,NNE,13.8,19.6,0.00,Rain,Light Rain,20,2011-11-07 09:53:00
5:53 AM,75.0,59.0,57,30.09,10.0,NE,12.7,21.9,0.00,,Mostly Cloudy,50,2011-11-07 10:53:00
6:53 AM,75.0,60.1,60,30.10,10.0,ENE,12.7,-,N/A,,Mostly Cloudy,60,2011-11-07 11:53:00
7:53 AM,75.9,61.0,60,30.11,10.0,ENE,16.1,21.9,N/A,,Scattered Clouds,70,2011-11-07 12:53:00
8:53 AM,73.9,64.9,73,30.13,9.0,NE,15.0,25.3,0.00,Rain,Light Rain,40,2011-11-07 13:53:00
9:53 AM,77.0,64.9,66,30.13,10.0,NE,16.1,27.6,0.01,,Mostly Cloudy,40,2011-11-07 14:53:00
10:53 AM,77.0,64.0,64,30.12,10.0,East,16.1,-,N/A,,Mostly Cloudy,80,2011-11-07 15:53:00
11:53 AM,80.1,64.0,58,30.10,10.0,NE,11.5,-,0.00,,Scattered Clouds,40,2011-11-07 16:53:00
12:53 PM,80.1,62.1,54,30.08,10.0,NE,16.1,24.2,N/A,,Scattered Clouds,40,2011-11-07 17:53:00
1:53 PM,79.0,62.1,56,30.06,10.0,NE,13.8,-,N/A,,Scattered Clouds,40,2011-11-07 18:53:00
2:53 PM,80.1,62.1,54,30.05,10.0,NE,16.1,-,N/A,,Scattered Clouds,50,2011-11-07 19:53:00
3:53 PM,78.1,63.0,60,30.04,10.0,NNE,15.0,-,N/A,,Scattered Clouds,30,2011-11-07 20:53:00
4:53 PM,78.1,62.1,58,30.04,10.0,NE,13.8,-,N/A,,Scattered Clouds,40,2011-11-07 21:53:00
5:53 PM,75.0,66.0,73,30.04,10.0,NNE,9.2,-,0.00,Rain,Light Rain,20,2011-11-07 22:53:00
6:53 PM,75.0,64.9,71,30.06,10.0,NE,11.5,-,0.00,,Scattered Clouds,40,2011-11-07 23:53:00
7:53 PM,73.0,68.0,84,30.08,9.0,NE,12.7,-,0.02,Rain,Light Rain,50,2011-11-08 00:53:00
8:53 PM,72.0,66.0,81,30.09,10.0,East,15.0,-,0.02,,Mostly Cloudy,80,2011-11-08 01:53:00
9:53 PM,70.0,69.1,97,30.09,7.0,North,5.8,-,0.00,Rain,Light Rain,360,2011-11-08 02:53:00
9:56 PM,69.8,69.8,100,30.09,2.0,North,4.6,-,0.00,Rain,Rain,10,2011-11-08 02:56:00
10:01 PM,69.8,69.8,100,30.09,8.0,NNW,3.5,-,0.00,Rain,Light Rain,330,2011-11-08 03:01:00
10:53 PM,69.1,69.1,100,30.07,10.0,WNW,4.6,-,0.00,,Mostly Cloudy,290,2011-11-08 03:53:00
11:53 PM,69.1,68.0,96,30.06,10.0,NNW,4.6,-,N/A,,Mostly Cloudy,340,2011-11-08 04:53:00